Weather History for Sioux Falls, SD

Change the Weather History Date:

Thursday, July 4, 2013

  Actual Average Record
Temperature  
Mean Temperature 73 °F 72 °F  
Max Temperature 84 °F 84 °F 108 °F (1936)
Min Temperature 62 °F 61 °F 38 °F (1967)
Degree Days  
Heating Degree Days 0 0  
Month to date heating degree days 0 0  
Since 1 June heating degree days 69 51  
Since 1 July heating degree days 0 0  
Cooling Degree Days 8 8  
Month to date cooling degree days 20 31  
Year to date cooling degree days 198 202  
Since 1 June cooling degree days 156 166  
Growing Degree Days 23 (Base 50)    
Moisture  
Dew Point 58 °F    
Average Humidity 59    
Maximum Humidity 78    
Minimum Humidity 40    
Precipitation  
Precipitation 0.00 in 0.11 in 2.60 in (1909)
Month to date precipitation 0.05 0.42  
Year to date precipitation 16.64 13.67  
Snow  
Snow 0.00 in 0.00 in 0.00 in ()
Month to date snowfall 0.0 0.0  
Since 1 June snowfall 0.0 0.0  
Since 1 July snowfall 0.0 0.0  
Snow Depth 0.00 in    
Sea Level Pressure  
Sea Level Pressure 29.86 in    
Wind  
Wind Speed 14 mph (South)    
Max Wind Speed 26 mph    
Max Gust Speed 35 mph    
Visibility 10 miles    
Events      
T = Trace of Precipitation, MM = Missing Value Source: NWS Daily Summary

Daily Weather History Graph

Daily Weather History Graph

Search for Another Location

Airport:

Trip Planner

Search our weather history database for the weather conditions in past years. The results will help you decide how hot, cold, wet, or windy it might be!

Date:

Astronomy

Jul. 04, 2013 Rise Set
Actual Time 5:51 AM CDT 9:11 PM CDT
Civil Twilight 5:15 AM CDT 9:46 PM CDT
Nautical Twilight 4:29 AM CDT 10:32 PM CDT
Astronomical Twilight 3:32 AM CDT 11:29 PM CDT
Moon 3:11 AM CDT (7/4) 6:14 PM CDT (7/4)
Length of Visible Light 16h 30m
Length of Day
15h 19m
Waning Crescent, 11% of the Moon is Illuminated
Jul 4
Waning Crescent
Jul 8
New
Jul 15
First Quarter
Jul 22
Full
Jul 29
Last Quarter

Hourly Weather History & Observations

Time (CDT) Temp. Heat Index Dew Point Humidity Pressure Visibility Wind Dir Wind Speed Gust Speed Precip Events Conditions
12:56 AM 69.1 °F - 57.9 °F 68% 29.92 in 10.0 mi South 8.1 mph - N/A   Clear
1:56 AM 68.0 °F - 57.9 °F 70% 29.91 in 10.0 mi South 10.4 mph - N/A   Clear
2:56 AM 66.9 °F - 57.0 °F 70% 29.91 in 10.0 mi SSW 8.1 mph - N/A   Clear
3:56 AM 64.9 °F - 55.9 °F 73% 29.91 in 10.0 mi SSW 8.1 mph - N/A   Clear
4:56 AM 64.0 °F - 55.0 °F 73% 29.91 in 10.0 mi South 10.4 mph - N/A   Partly Cloudy
5:56 AM 62.1 °F - 55.0 °F 78% 29.91 in 10.0 mi South 5.8 mph - N/A   Partly Cloudy
6:56 AM 64.0 °F - 55.9 °F 75% 29.91 in 10.0 mi SSE 6.9 mph - N/A   Partly Cloudy
7:56 AM 66.0 °F - 55.9 °F 70% 29.91 in 10.0 mi South 9.2 mph - N/A   Clear
8:56 AM 69.1 °F - 57.9 °F 68% 29.91 in 10.0 mi South 6.9 mph - N/A   Partly Cloudy
9:56 AM 73.0 °F - 60.1 °F 64% 29.90 in 10.0 mi South 10.4 mph - N/A   Scattered Clouds
10:56 AM 75.9 °F - 60.1 °F 58% 29.88 in 10.0 mi South 12.7 mph - N/A   Scattered Clouds
11:56 AM 79.0 °F - 61.0 °F 54% 29.86 in 10.0 mi South 19.6 mph 27.6 mph N/A   Partly Cloudy
12:56 PM 80.1 °F 81.1 °F 61.0 °F 52% 29.84 in 10.0 mi South 16.1 mph 32.2 mph N/A   Partly Cloudy
1:56 PM 82.0 °F 82.1 °F 59.0 °F 45% 29.83 in 10.0 mi South 23.0 mph 32.2 mph N/A   Partly Cloudy
2:56 PM 84.0 °F 83.8 °F 59.0 °F 43% 29.83 in 10.0 mi South 20.7 mph 27.6 mph N/A   Scattered Clouds
3:56 PM 84.0 °F 83.8 °F 59.0 °F 43% 29.82 in 10.0 mi South 19.6 mph 28.8 mph N/A   Mostly Cloudy
4:56 PM 84.0 °F 83.5 °F 57.9 °F 41% 29.81 in 10.0 mi SSW 18.4 mph 28.8 mph N/A   Mostly Cloudy
5:56 PM 82.9 °F 83.2 °F 60.1 °F 46% 29.81 in 10.0 mi South 21.9 mph 29.9 mph N/A   Mostly Cloudy
6:56 PM 82.0 °F 82.1 °F 59.0 °F 45% 29.80 in 10.0 mi South 16.1 mph 25.3 mph N/A   Scattered Clouds
7:56 PM 81.0 °F 81.1 °F 57.9 °F 45% 29.79 in 10.0 mi South 16.1 mph 25.3 mph N/A   Scattered Clouds
8:56 PM 79.0 °F - 59.0 °F 50% 29.80 in 10.0 mi South 16.1 mph 23.0 mph N/A   Scattered Clouds
9:56 PM 78.1 °F - 57.9 °F 50% 29.81 in 10.0 mi South 16.1 mph 24.2 mph N/A   Mostly Cloudy
10:56 PM 75.9 °F - 57.9 °F 54% 29.83 in 10.0 mi South 12.7 mph - N/A   Mostly Cloudy
11:56 PM 75.0 °F - 57.0 °F 53% 29.83 in 10.0 mi South 13.8 mph - N/A   Mostly Cloudy